Погода в Бресте

Погода в Бресте : погода сейчас, прогноз погоды и архив. Всё, что Вы хотите узнать о погоде в Бресте!

Поиск расширенной информации на нашем сайте:

Другие новости

Новости СМИ2

Главная страница сайта

Новости сайта

03.07.2017

Напоминаем, что на нашем специализированном сайте Метеоцентр.Азия вы можете получить высокодетализированные автоматические прогнозы погоды по пунктам России, СНГ и мира в авиационном формате (включающие направление и скорость ветра, видимость, явления погоды, количество и форму облачности, нижнюю и верхнюю границу облачности).


Погода в Бресте - сегодня

Время (UTC), дата Ветер
(°,м/с) 
Видим.   Явления Облачность Т
(°С)
Тd
(°С)
f(%) Тe
(°С)
Pmin
(гПа)
dP
(гПа)
Po
(мм)
O2
(г/м3)
Тmin Tmax R s Состояние
почвы
15 13.01.18 080 (В) 30000 м    10/10 450 м 
[Sc]
-4.8 -7.6 81 -8  1041.3  -0.7  767  315           
18 13.01.18 080 (В) 30000 м    10/10 400 м 
[Sc]
-5.4 -8 82 -9  1041.9  0.5  767  316    -4.1     
21 13.01.18 100 (В) 30000 м    10/10 420 м 
[Sc]
-6 -8.6 82 -9  1041.8  -0.1  767  317           
00 14.01.18 110 (В) 30000 м    10/10 420 м 
[Sc]
-6.3 -8.9 82 -8  1040.8  -1  766  317           
03 14.01.18 090 (В) 30000 м    10/10 360 м 
[Sc]
-6.8 -8.9 85 -9  1040.5  -0.4  766  317         
06 14.01.18 110 (В) 30000 м    10/10 330 м 
[Sc]
-7.2 -9.3 85 -10  1040  -0.5  766  318  -7.3      сухой снег
10-40% 
09 14.01.18 130 (ЮВ) 30000 м  слаб. снег  10/10 450 м 
[Ns]
-6.6 -9.5 80 -9  1040  0.1  766  317           
12 14.01.18 140 (ЮВ) 15000 м  слаб. снег  10/10 540 м 
[Ns]
-6.4 -10.3 74 -8  1038.9  -1.1  765  317           
15 14.01.18 090 (В) 12000 м  слаб. снег  10/10 720 м 
[Sc]
-6.9 -11.5 70 -10  1038.3  -0.6  764  317      0.0     
18 14.01.18 130 (ЮВ) 15000 м  слаб. снег  10/10 720 м 
[Sc]
-7 -11.5 70 -10  1037.9  -0.4  764  317    -6.4  0.0  <0.5   
21 14.01.18 130 (ЮВ) 20000 м  слаб. снег  10/10 720 м 
[Sc]
-7.4 -11.6 72 -10  1038.1  0.1  764  318           
00 15.01.18 130 (ЮВ) 20000 м  слаб. снег  10/10 720 м 
[Sc]
-8.1 -12.3 72 -10  1037.4  -0.7  764  318           
03 15.01.18 120 (ЮВ) 20000 м  слаб. снег  10/10 660 м 
[Sc]
-8 -12.2 72 -11  1035.9  -1.5  762  318      0.0  <0.5   
06 15.01.18 130 (ЮВ) 20000 м  слаб. снег  10/10 660 м 
[Sc]
-8.1 -12.1 73 -11  1035  -0.8  762  318  -8.1    0.0  <0.5  равномерный
сухой снег
100% 
09 15.01.18 130 (ЮВ) 10 км  слаб. снег  10/10 660 м 
[Sc]
-7.8 -12 72 -11  1034.1  -0.9  761  317           
12 15.01.18 130 (ЮВ) 30000 м  в посл. час снег  8/0 средняя 
[Ac trans]
-6.7 -11.6 68 -10  1031.7  -2.3  759  315           
15 15.01.18 130 (ЮВ) 20000 м    ясно 
-7 -12.1 67 -10  1029.6  -2.1  758  315      0.0     
18 15.01.18 130 (ЮВ) 20000 м    ясно 
-9 -12 79 -12  1027.6  -2.1  756  316    -6  0.0   
21 15.01.18 140 (ЮВ) 20000 м    ясно 
-10.2 -12.4 84 -13  1025.6  -2  755  317           
00 16.01.18 140 (ЮВ) 20000 м    ясно 
-10.9 -12.8 86 -14  1022.8  -2.8  753  317           
03 16.01.18 130 (ЮВ) 15000 м    ясно 
-11.1 -12.7 88 -14  1019.5  -3.3  750  316         
06 16.01.18 130 (ЮВ) 15000 м    3/3 300 м 
[St]
-10.9 -12.5 88 -15  1016.3  -3.1  748  315  -11.3      сухой снег
10-40% 
09 16.01.18 130 (ЮВ) 15000 м    ясно 
-9 -11.7 81 -13  1013.5  -2.6  746  312           
12 16.01.18 130 (ЮВ) 4{10}  20000 м    1/0 средняя 
[Ac trans]
-5.4 -10.8 66 -9  1008.8  -4.4  743  306           
15 16.01.18 120 (ЮВ) 5-10{10}  20000 м    9/9 1020 м 
[Sc]
-5.6 -10.9 66 -10  1005  -3.7  740  305           
Время (UTC), дата Ветер
(°,м/с) 
Видим.   Явления Облачность Т
(°С)
Тd
(°С)
f(%) Тe
(°С)
Pmin
(гПа)
dP
(гПа)
Po
(мм)
O2
(г/м3)
Тmin Tmax R s Состояние
почвы

Для получения пояснительной информации подведите курсор к названию столбца.

ПОГОДА в Бресте - архив

Всё, что Вы хотите узнать о погоде в Бресте - удобно и подробно!

Выберите нужную дату (начиная с 1 января 2015* года) и нажмите кнопку "Найти".
Будут отображены архивные сводки погоды по пункту Брест, начиная с указанной даты.


Отображать данные в формате CSV (для использования в таблицах Excel)


Внимание! Наш архив погоды предназначен исключительно для личного некоммерческого использования в познавательных целях. Если Вам необходимы официальные справки о состоянии погоды (для производственных, юридических, коммерческих и т.п. целей), обращайтесь в органы Росгидромета.

*Примечание: данная дата относится к архиву по метеостанциям СССР (Россия, СНГ, Балтия).
Архив по метеостанциям Зарубежной Европы и Азии (кроме Китая) хранится 10 дней, по другим регионам земного шара (Китай, Африка, Америка, Австралия, Океания) - 1 день.

Брест - район местоположения метеостанции


Название, широта, долгота, высота метеостанции:
Брест 52.1°ш. 23.7°д. 146 м над ур. моря [Беларусь]

Дополнительная информация

В oтличие oт бoльшинства пoгoдных сайтoв мы публикуем пoдрoбную метеoинфoрмацию в детальнoм прoфессиoнальнoм фoрмате.

Характеристики температуры и влажнoсти вoздуха измеряются на высoте 2 м в тени вдали oт зданий и деревьев.
Скoрoсть ветра измеряется на высoте 10 м (на урoвне рoста челoвека скoрoсть ветра ниже в 1.5-2 раза). Если метеoстанция нахoдится в гoрoде или в лесу, тo скoрoсть ветра занижена на 2-4 м/с пo сравнению с oткрытым местoм. Скoрoсть ветра над акватoриями крупных рек и oзёр, а также на вершинах хoлмoв на 2-5 м/с выше, чем в oбычных услoвиях.
Атмoсфернoе давление в разных тoчках местнoсти мoжет значительнo oтличаться oт давления на метеoстанции, в зависимoсти oт услoвий рельефа (при пoдъёме на 10 м давление пoнижается примернo на 1 мм рт.ст.).